SWR9YD LHBP-LSZH

Flight info

Callsign SWR9YD
Flight time 1h 24m
Altitude 34000
Route GILEP2B GILEP DCT ZOLKU DCT SUNIS DCT SETAL DCT ERKIR DCT KPT L856 NEGRA NEGRA2A
Aircraft A321/M-SDE3FGHIRWY/LB1

Departure

Time 2026-05-05 12:06
Airport Budapest Liszt Ferenc International Airport (LHBP)

Arrival

Time 2026-05-05 13:31
Airport Zürich Airport (LSZH)
Time Latitude Longitude Altitude Speed Heading
2026-05-05 11:39 47.43455 19.26254 469 ft 0 kts 221°
2026-05-05 12:00 47.43463 19.26263 469 ft 3 kts 220°
2026-05-05 12:00 47.43478 19.26283 464 ft 3 kts 225°
2026-05-05 12:00 47.43490 19.26304 464 ft 3 kts 253°
2026-05-05 12:00 47.43493 19.26319 467 ft 2 kts 308°
2026-05-05 12:01 47.43491 19.26322 467 ft 0 kts 311°
2026-05-05 12:03 47.43502 19.26304 466 ft 7 kts 311°
2026-05-05 12:03 47.43553 19.26223 469 ft 12 kts 321°
2026-05-05 12:03 47.43604 19.26224 469 ft 12 kts 28°
2026-05-05 12:03 47.43713 19.26368 469 ft 17 kts 42°
2026-05-05 12:04 47.43780 19.26411 469 ft 16 kts 346°
2026-05-05 12:04 47.43885 19.26258 469 ft 17 kts 313°
2026-05-05 12:04 47.43950 19.26211 469 ft 16 kts 12°
2026-05-05 12:04 47.44052 19.26345 473 ft 12 kts 57°
2026-05-05 12:05 47.44066 19.26439 474 ft 9 kts 86°
2026-05-05 12:05 47.44042 19.26566 474 ft 16 kts 133°
2026-05-05 12:05 47.43945 19.26722 472 ft 33 kts 133°
2026-05-05 12:05 47.43768 19.27004 472 ft 77 kts 132°
2026-05-05 12:06 47.43276 19.27800 465 ft 131 kts 131°
2026-05-05 12:06 47.42551 19.28946 471 ft 170 kts 131°
2026-05-05 12:06 47.41779 19.30314 1042 ft 172 kts 127°
2026-05-05 12:06 47.41305 19.31909 1879 ft 168 kts 119°
2026-05-05 12:07 47.40890 19.33521 2519 ft 168 kts 116°
2026-05-05 12:07 47.40464 19.35122 3142 ft 166 kts 124°
2026-05-05 12:07 47.39877 19.36582 3746 ft 166 kts 128°
2026-05-05 12:07 47.39275 19.38023 4287 ft 168 kts 127°
2026-05-05 12:08 47.38626 19.39466 4816 ft 169 kts 141°
2026-05-05 12:08 47.37641 19.40342 5312 ft 165 kts 169°
2026-05-05 12:08 47.36529 19.40214 5833 ft 164 kts 206°
2026-05-05 12:08 47.35652 19.39179 6427 ft 160 kts 225°
2026-05-05 12:09 47.34967 19.37922 7063 ft 155 kts 230°
2026-05-05 12:09 47.34344 19.36652 7646 ft 152 kts 232°
2026-05-05 12:09 47.33759 19.35340 8167 ft 153 kts 234°
2026-05-05 12:09 47.33222 19.33978 8649 ft 153 kts 237°
2026-05-05 12:10 47.32721 19.32592 9125 ft 156 kts 233°
2026-05-05 12:10 47.32122 19.31271 9625 ft 156 kts 230°
2026-05-05 12:10 47.31492 19.29959 10053 ft 161 kts 230°
2026-05-05 12:10 47.30807 19.28519 10195 ft 181 kts 231°
2026-05-05 12:11 47.30072 19.26946 10299 ft 205 kts 232°
2026-05-05 12:11 47.29204 19.25046 10507 ft 229 kts 233°
2026-05-05 12:11 47.28283 19.22989 10757 ft 252 kts 233°
2026-05-05 12:11 47.27285 19.20724 10993 ft 275 kts 234°
2026-05-05 12:12 47.26206 19.18251 11215 ft 298 kts 234°
2026-05-05 12:12 47.25067 19.15620 11727 ft 309 kts 235°
2026-05-05 12:12 47.23904 19.12923 12428 ft 314 kts 235°
2026-05-05 12:12 47.22728 19.10191 13202 ft 318 kts 235°
2026-05-05 12:13 47.21551 19.07423 13972 ft 322 kts 238°
2026-05-05 12:13 47.20758 19.04308 14586 ft 332 kts 256°
2026-05-05 12:13 47.20687 19.00873 15218 ft 343 kts 275°
2026-05-05 12:13 47.21407 18.97486 15827 ft 354 kts 294°
2026-05-05 12:14 47.22807 18.94522 16489 ft 362 kts 305°
2026-05-05 12:14 47.24377 18.91604 17177 ft 365 kts 305°
2026-05-05 12:14 47.25955 18.88666 17886 ft 368 kts 305°
2026-05-05 12:14 47.27545 18.85694 18527 ft 371 kts 305°
2026-05-05 12:15 47.29140 18.82696 19145 ft 373 kts 305°
2026-05-05 12:15 47.30737 18.79678 19761 ft 375 kts 305°
2026-05-05 12:15 47.32346 18.76631 20359 ft 376 kts 305°
2026-05-05 12:15 47.33958 18.73586 20974 ft 378 kts 305°
2026-05-05 12:16 47.35580 18.70524 21575 ft 379 kts 305°
2026-05-05 12:16 47.37207 18.67448 22157 ft 381 kts 305°
2026-05-05 12:16 47.38840 18.64356 22750 ft 383 kts 305°
2026-05-05 12:16 47.40452 18.61227 23295 ft 383 kts 301°
2026-05-05 12:17 47.41740 18.57797 23812 ft 382 kts 291°
2026-05-05 12:17 47.42607 18.54114 24227 ft 384 kts 284°
2026-05-05 12:17 47.43376 18.50315 24651 ft 386 kts 284°
2026-05-05 12:17 47.44155 18.46500 25065 ft 389 kts 284°
2026-05-05 12:18 47.44941 18.42655 25463 ft 392 kts 284°
2026-05-05 12:18 47.45731 18.38785 25863 ft 395 kts 284°
2026-05-05 12:18 47.46521 18.34889 26251 ft 398 kts 284°
2026-05-05 12:18 47.47318 18.30948 26647 ft 401 kts 284°
2026-05-05 12:19 47.48103 18.27042 27045 ft 404 kts 284°
2026-05-05 12:19 47.48885 18.22991 27432 ft 406 kts 282°
2026-05-05 12:19 47.49592 18.18939 27823 ft 408 kts 281°
2026-05-05 12:19 47.50248 18.14898 28211 ft 410 kts 281°
2026-05-05 12:20 47.50895 18.10774 28596 ft 413 kts 281°
2026-05-05 12:20 47.51544 18.06626 28971 ft 415 kts 281°
2026-05-05 12:20 47.52204 18.02460 29347 ft 418 kts 281°
2026-05-05 12:20 47.52881 17.98265 29713 ft 420 kts 281°
2026-05-05 12:21 47.53566 17.94055 30079 ft 422 kts 281°
2026-05-05 12:21 47.54258 17.89828 30411 ft 423 kts 281°
2026-05-05 12:21 47.54802 17.85564 30733 ft 422 kts 274°
2026-05-05 12:21 47.54863 17.81227 31066 ft 421 kts 264°
2026-05-05 12:22 47.54425 17.76953 31455 ft 419 kts 255°
2026-05-05 12:22 47.53516 17.72877 31919 ft 416 kts 247°
2026-05-05 12:22 47.52411 17.68930 32385 ft 414 kts 247°
2026-05-05 12:22 47.51314 17.64980 32812 ft 413 kts 248°
2026-05-05 12:23 47.50239 17.61099 33237 ft 412 kts 248°
2026-05-05 12:23 47.49144 17.57155 33647 ft 411 kts 248°
2026-05-05 12:23 47.48053 17.53241 33888 ft 410 kts 248°
2026-05-05 12:23 47.46991 17.49434 33921 ft 396 kts 248°
2026-05-05 12:24 47.44920 17.42038 33919 ft 386 kts 247°
2026-05-05 12:24 47.42865 17.34715 33920 ft 385 kts 248°
2026-05-05 12:25 47.40811 17.27435 33918 ft 384 kts 247°
2026-05-05 12:25 47.38749 17.20164 33917 ft 384 kts 248°
2026-05-05 12:26 47.36690 17.12894 33917 ft 384 kts 248°
2026-05-05 12:26 47.34633 17.05646 33908 ft 383 kts 247°
2026-05-05 12:27 47.32566 16.98407 33903 ft 383 kts 247°
2026-05-05 12:27 47.30495 16.91180 33905 ft 383 kts 247°
2026-05-05 12:28 47.28437 16.84007 33909 ft 382 kts 247°
2026-05-05 12:28 47.26362 16.76808 33905 ft 382 kts 247°
2026-05-05 12:29 47.24278 16.69622 33908 ft 382 kts 247°
2026-05-05 12:29 47.22199 16.62435 33906 ft 381 kts 247°
2026-05-05 12:30 47.20117 16.55272 33908 ft 381 kts 247°
2026-05-05 12:30 47.18033 16.48120 33904 ft 380 kts 247°
2026-05-05 12:31 47.15949 16.40978 33903 ft 380 kts 247°
2026-05-05 12:31 47.14494 16.33566 33896 ft 380 kts 264°
2026-05-05 12:32 47.14669 16.25857 33893 ft 381 kts 272°
2026-05-05 12:32 47.15067 16.18095 33885 ft 381 kts 272°
2026-05-05 12:33 47.15448 16.10321 33884 ft 381 kts 272°
2026-05-05 12:33 47.15828 16.02555 33879 ft 381 kts 272°
2026-05-05 12:34 47.16211 15.94788 33873 ft 381 kts 272°
2026-05-05 12:34 47.16591 15.87021 33874 ft 381 kts 272°
2026-05-05 12:35 47.16962 15.79237 33877 ft 382 kts 271°
2026-05-05 12:35 47.17323 15.71463 33874 ft 382 kts 271°
2026-05-05 12:36 47.17681 15.63679 33874 ft 382 kts 271°
2026-05-05 12:36 47.18041 15.55889 33873 ft 382 kts 271°
2026-05-05 12:37 47.18393 15.48091 33869 ft 382 kts 271°
2026-05-05 12:37 47.18731 15.40342 33871 ft 382 kts 271°
2026-05-05 12:38 47.19069 15.32536 33875 ft 382 kts 271°
2026-05-05 12:38 47.19405 15.24737 33870 ft 382 kts 271°
2026-05-05 12:39 47.19736 15.16925 33869 ft 383 kts 271°
2026-05-05 12:39 47.20056 15.09121 33883 ft 383 kts 271°
2026-05-05 12:40 47.20374 15.01298 33891 ft 383 kts 270°
2026-05-05 12:40 47.20688 14.93478 33896 ft 383 kts 270°
2026-05-05 12:41 47.20996 14.85648 33897 ft 384 kts 270°
2026-05-05 12:41 47.21301 14.77813 33896 ft 384 kts 270°
2026-05-05 12:42 47.21606 14.69955 33896 ft 385 kts 270°
2026-05-05 12:42 47.21893 14.62146 33897 ft 385 kts 270°
2026-05-05 12:43 47.22177 14.54265 33894 ft 386 kts 269°
2026-05-05 12:43 47.22460 14.46371 33892 ft 387 kts 269°
2026-05-05 12:44 47.22733 14.38462 33885 ft 387 kts 269°
2026-05-05 12:44 47.23004 14.30535 33883 ft 388 kts 269°
2026-05-05 12:45 47.23639 14.22625 33880 ft 392 kts 278°
2026-05-05 12:45 47.24801 14.14776 33874 ft 392 kts 278°
2026-05-05 12:46 47.25943 14.06914 33877 ft 393 kts 278°
2026-05-05 12:46 47.27077 13.99046 33875 ft 393 kts 278°
2026-05-05 12:47 47.28202 13.91173 33880 ft 393 kts 278°
2026-05-05 12:47 47.29321 13.83360 33877 ft 392 kts 278°
2026-05-05 12:48 47.30439 13.75487 33883 ft 392 kts 278°
2026-05-05 12:48 47.31551 13.67632 33881 ft 392 kts 278°
2026-05-05 12:49 47.32658 13.59770 33879 ft 391 kts 278°
2026-05-05 12:49 47.33759 13.51925 33878 ft 390 kts 278°
2026-05-05 12:50 47.34849 13.44101 33871 ft 389 kts 278°
2026-05-05 12:50 47.35933 13.36280 33860 ft 389 kts 278°
2026-05-05 12:51 47.37013 13.28465 33860 ft 389 kts 278°
2026-05-05 12:51 47.38077 13.20687 33854 ft 389 kts 279°
2026-05-05 12:52 47.39145 13.12864 33852 ft 390 kts 278°
2026-05-05 12:52 47.40213 13.05019 33848 ft 390 kts 279°
2026-05-05 12:53 47.41266 12.97171 33847 ft 390 kts 278°
2026-05-05 12:53 47.42316 12.89326 33839 ft 389 kts 278°
2026-05-05 12:54 47.43877 12.77620 33838 ft 388 kts 278°
2026-05-05 12:55 47.44910 12.69789 33837 ft 389 kts 278°
2026-05-05 12:55 47.45939 12.61955 33834 ft 388 kts 278°
2026-05-05 12:56 47.46965 12.54128 33835 ft 388 kts 278°
2026-05-05 12:56 47.47987 12.46311 33835 ft 387 kts 278°
2026-05-05 12:57 47.49002 12.38500 33831 ft 387 kts 277°
2026-05-05 12:57 47.49996 12.30725 33833 ft 387 kts 277°
2026-05-05 12:58 47.50991 12.22915 33824 ft 386 kts 277°
2026-05-05 12:58 47.51991 12.15074 33819 ft 386 kts 277°
2026-05-05 12:59 47.52973 12.07315 33821 ft 386 kts 277°
2026-05-05 12:59 47.53956 11.99501 33828 ft 387 kts 277°
2026-05-05 13:00 47.55506 11.87775 33819 ft 387 kts 277°
2026-05-05 13:01 47.57398 11.73455 33820 ft 387 kts 277°
2026-05-05 13:01 47.58421 11.65626 33818 ft 387 kts 277°
2026-05-05 13:02 47.59434 11.57780 33802 ft 387 kts 276°
2026-05-05 13:02 47.60441 11.49940 33797 ft 387 kts 276°
2026-05-05 13:03 47.61447 11.42098 33797 ft 388 kts 276°
2026-05-05 13:03 47.62444 11.34295 33793 ft 388 kts 276°
2026-05-05 13:04 47.63437 11.26435 33799 ft 388 kts 276°
2026-05-05 13:04 47.64424 11.18564 33811 ft 389 kts 276°
2026-05-05 13:05 47.65357 11.11088 33819 ft 389 kts 276°
2026-05-05 13:05 47.66340 11.03190 33826 ft 390 kts 276°
2026-05-05 13:06 47.67324 10.95268 33837 ft 391 kts 276°
2026-05-05 13:06 47.68305 10.87295 33289 ft 394 kts 275°
2026-05-05 13:07 47.68792 10.83293 32883 ft 396 kts 275°
2026-05-05 13:07 47.69282 10.79263 32490 ft 398 kts 275°
2026-05-05 13:07 47.69777 10.75204 32101 ft 400 kts 275°
2026-05-05 13:07 47.70272 10.71130 31711 ft 403 kts 275°
2026-05-05 13:08 47.70769 10.67027 31327 ft 405 kts 275°
2026-05-05 13:08 47.71267 10.62903 30952 ft 407 kts 275°
2026-05-05 13:08 47.71763 10.58758 30579 ft 409 kts 275°
2026-05-05 13:08 47.72256 10.54636 30217 ft 411 kts 275°
2026-05-05 13:09 47.72752 10.50450 29844 ft 413 kts 275°
2026-05-05 13:09 47.73251 10.46228 29421 ft 415 kts 275°
2026-05-05 13:09 47.73724 10.42228 29025 ft 416 kts 275°
2026-05-05 13:09 47.74224 10.37992 28618 ft 416 kts 275°
2026-05-05 13:10 47.74530 10.33760 28210 ft 409 kts 266°
2026-05-05 13:10 47.74457 10.29566 27814 ft 405 kts 263°
2026-05-05 13:10 47.74360 10.25395 27418 ft 402 kts 263°
2026-05-05 13:10 47.74268 10.21252 27033 ft 400 kts 263°
2026-05-05 13:11 47.74179 10.17137 26653 ft 398 kts 264°
2026-05-05 13:11 47.74090 10.13042 26274 ft 396 kts 264°
2026-05-05 13:11 47.73997 10.08945 25900 ft 394 kts 264°
2026-05-05 13:11 47.73898 10.04934 25537 ft 391 kts 263°
2026-05-05 13:12 47.73794 10.00881 25169 ft 389 kts 263°
2026-05-05 13:12 47.73694 9.96902 24816 ft 387 kts 264°
2026-05-05 13:12 47.73595 9.92874 24454 ft 385 kts 264°
2026-05-05 13:12 47.73497 9.88934 24108 ft 383 kts 264°
2026-05-05 13:13 47.73399 9.84995 23761 ft 381 kts 264°
2026-05-05 13:13 47.73301 9.81073 23410 ft 379 kts 264°
2026-05-05 13:13 47.73203 9.77181 23003 ft 376 kts 264°
2026-05-05 13:13 47.73101 9.73307 22586 ft 373 kts 264°
2026-05-05 13:14 47.72997 9.69470 22198 ft 371 kts 264°
2026-05-05 13:14 47.72891 9.65655 21801 ft 368 kts 264°
2026-05-05 13:14 47.72783 9.61866 21413 ft 366 kts 264°
2026-05-05 13:14 47.72675 9.58112 21030 ft 363 kts 264°
2026-05-05 13:15 47.72569 9.54427 20652 ft 360 kts 264°
2026-05-05 13:15 47.72459 9.50716 20280 ft 358 kts 264°
2026-05-05 13:15 47.72320 9.46994 19904 ft 354 kts 260°
2026-05-05 13:15 47.71794 9.43516 19543 ft 348 kts 248°
2026-05-05 13:16 47.70778 9.40301 19182 ft 342 kts 236°
2026-05-05 13:16 47.69361 9.37487 18810 ft 339 kts 229°
2026-05-05 13:16 47.67861 9.34774 18401 ft 337 kts 229°
2026-05-05 13:16 47.66376 9.32082 17993 ft 335 kts 229°
2026-05-05 13:17 47.64904 9.29408 17540 ft 333 kts 230°
2026-05-05 13:17 47.63437 9.26747 17087 ft 331 kts 230°
2026-05-05 13:17 47.62003 9.24144 16646 ft 329 kts 230°
2026-05-05 13:17 47.60570 9.21512 16208 ft 328 kts 233°
2026-05-05 13:18 47.59449 9.18583 15784 ft 327 kts 246°
2026-05-05 13:18 47.58820 9.15363 15373 ft 326 kts 258°
2026-05-05 13:18 47.58424 9.12063 14946 ft 324 kts 258°
2026-05-05 13:18 47.58020 9.08789 14535 ft 322 kts 258°
2026-05-05 13:19 47.57614 9.05533 14129 ft 320 kts 258°
2026-05-05 13:19 47.57206 9.02303 13729 ft 318 kts 258°
2026-05-05 13:19 47.56801 8.99097 13290 ft 316 kts 258°
2026-05-05 13:19 47.56396 8.95905 12829 ft 314 kts 258°
2026-05-05 13:20 47.55999 8.92732 12397 ft 312 kts 258°
2026-05-05 13:20 47.55609 8.89578 11970 ft 311 kts 258°
2026-05-05 13:20 47.55227 8.86437 11534 ft 309 kts 258°
2026-05-05 13:20 47.54853 8.83323 11110 ft 307 kts 258°
2026-05-05 13:21 47.54484 8.80224 10691 ft 305 kts 258°
2026-05-05 13:21 47.54121 8.77142 10277 ft 303 kts 258°
2026-05-05 13:21 47.53760 8.74084 9875 ft 301 kts 257°
2026-05-05 13:21 47.53410 8.71050 9437 ft 299 kts 258°
2026-05-05 13:22 47.53062 8.68051 8994 ft 297 kts 258°
2026-05-05 13:22 47.52746 8.65037 8551 ft 296 kts 265°
2026-05-05 13:22 47.53079 8.62031 8116 ft 300 kts 290°
2026-05-05 13:22 47.54263 8.59469 7687 ft 305 kts 311°
2026-05-05 13:23 47.55790 8.57291 7267 ft 304 kts 314°
2026-05-05 13:23 47.57314 8.55166 6852 ft 303 kts 313°
2026-05-05 13:23 47.58851 8.53028 6429 ft 302 kts 314°
2026-05-05 13:23 47.60374 8.50891 6006 ft 302 kts 314°
2026-05-05 13:24 47.61894 8.48749 5570 ft 302 kts 314°
2026-05-05 13:24 47.63411 8.46599 5129 ft 300 kts 314°
2026-05-05 13:24 47.64910 8.44470 4696 ft 297 kts 314°
2026-05-05 13:24 47.66387 8.42337 4270 ft 295 kts 310°
2026-05-05 13:25 47.67408 8.39781 3987 ft 285 kts 285°
2026-05-05 13:25 47.67509 8.36974 3979 ft 265 kts 257°
2026-05-05 13:25 47.66882 8.34489 3992 ft 250 kts 243°
2026-05-05 13:25 47.65837 8.32529 3985 ft 239 kts 218°
2026-05-05 13:26 47.64334 8.31666 3984 ft 233 kts 182°
2026-05-05 13:26 47.62832 8.32426 4024 ft 237 kts 142°
2026-05-05 13:26 47.61877 8.34432 4013 ft 243 kts 118°
2026-05-05 13:26 47.60918 8.36428 3987 ft 239 kts 141°
2026-05-05 13:27 47.59661 8.37986 3991 ft 227 kts 142°
2026-05-05 13:27 47.58525 8.39479 3986 ft 211 kts 140°
2026-05-05 13:27 47.57457 8.40935 3876 ft 208 kts 139°
2026-05-05 13:27 47.56412 8.42371 3662 ft 203 kts 138°
2026-05-05 13:28 47.55381 8.43785 3383 ft 201 kts 139°
2026-05-05 13:28 47.54389 8.45147 3111 ft 186 kts 140°
2026-05-05 13:28 47.53511 8.46353 2906 ft 161 kts 140°
2026-05-05 13:28 47.52697 8.47467 2695 ft 156 kts 140°
2026-05-05 13:29 47.51917 8.48533 2498 ft 152 kts 140°
2026-05-05 13:29 47.51156 8.49575 2263 ft 150 kts 139°
2026-05-05 13:29 47.50389 8.50623 2054 ft 149 kts 138°
2026-05-05 13:29 47.49630 8.51660 1839 ft 149 kts 138°
2026-05-05 13:30 47.48879 8.52706 1593 ft 147 kts 137°
2026-05-05 13:30 47.48130 8.53726 1421 ft 146 kts 139°
2026-05-05 13:30 47.47422 8.54657 1401 ft 119 kts 135°
2026-05-05 13:30 47.46963 8.55303 1401 ft 70 kts 137°
2026-05-05 13:31 47.46657 8.55722 1404 ft 46 kts 137°
2026-05-05 13:31 47.46415 8.55942 1397 ft 29 kts 162°
2026-05-05 13:31 47.46263 8.55993 1407 ft 22 kts 168°
2026-05-05 13:31 47.46126 8.55994 1400 ft 16 kts 185°
2026-05-05 13:32 47.46016 8.55980 1401 ft 16 kts 186°
2026-05-05 13:32 47.45906 8.55937 1402 ft 16 kts 200°
2026-05-05 13:32 47.45804 8.55887 1399 ft 16 kts 192°
2026-05-05 13:32 47.45702 8.55865 1402 ft 14 kts 185°
2026-05-05 13:33 47.45645 8.55777 1404 ft 7 kts 277°
2026-05-05 13:33 47.45645 8.55775 1404 ft 0 kts 277°
2026-05-05 13:33 47.45647 8.55725 1405 ft 10 kts 274°
2026-05-05 13:33 47.45658 8.55580 1397 ft 15 kts 276°
2026-05-05 13:34 47.45669 8.55429 1397 ft 15 kts 276°
2026-05-05 13:34 47.45623 8.55343 1399 ft 12 kts 173°
2026-05-05 13:34 47.45546 8.55390 1406 ft 12 kts 155°
2026-05-05 13:34 47.45455 8.55453 1399 ft 18 kts 155°
2026-05-05 13:35 47.45338 8.55533 1402 ft 19 kts 155°
2026-05-05 13:35 47.45269 8.55657 1399 ft 16 kts 97°
2026-05-05 13:35 47.45257 8.55826 1407 ft 17 kts 96°
2026-05-05 13:35 47.45260 8.55925 1404 ft 6 kts 43°
2026-05-05 13:36 47.45305 8.55939 1400 ft 7 kts
2026-05-05 13:36 47.45328 8.55942 1405 ft 1 kts
2026-05-05 13:36 47.45330 8.55943 1405 ft 0 kts